Regional Weather Roundup
Issued by NWS Albany, NY

Home | Current Version | Previous Version | Graphics & Text | Print | Product List | Glossary Off
Versions: 1 2 3 4 5 6 7 8 9 10 11 12 13 14 15 16 17 18 19 20 21 22 23 24 25 26 27 28 29 30 31 32 33 34 35 36 37 38 39 40 41 42 43 44 45 46 47 48 49 50

001
ASUS41 KALY 301410
RWRALY

NEW YORK STATE HOURLY WEATHER ROUNDUP
NATIONAL WEATHER SERVICE ALBANY NY
1000 AM EDT SAT JUL 30 2016

NOTE: "FAIR" INDICATES FEW OR NO CLOUDS BELOW 12,000 FEET WITH NO
SIGNIFICANT WEATHER AND/OR NO OBSTRUCTIONS TO VISIBILITY.

NYZ032-033-038>043-046>054-057>066-NYZ062>081-082-084-301500-
EAST


CITY           SKY/WX    TMP DP  RH WIND       PRES   REMARKS
ALBANY         PTSUNNY   73  61  65 N5        30.06S
GLENS FALLS    CLOUDY    72  59  63 NE8       30.06F
POUGHKEEPSIE   CLOUDY    77  62  59 VRB6      30.02F
NEWBURGH       PTSUNNY   73  64  73 E8        30.05R
MONTGOMERY     CLOUDY    74  64  71 NE6       30.03S
WHITE PLAINS   CLOUDY    74  66  76 E5        30.02F
ISLIP          PTSUNNY   80  71  74 CALM      30.00S
NEW YORK CITY  PTSUNNY   78  69  73 NE12      30.00F
CENTRAL PARK   MOSUNNY   79  69  71 NE7       30.03F
$$

NYZ005>009-017-018-044>046-055-056-301500-
CENTRAL


CITY           SKY/WX    TMP DP  RH WIND       PRES   REMARKS
FULTON         CLOUDY    75  59  57 E5        30.05S
SYRACUSE       CLOUDY    69  61  75 NE3       30.04S
ROME           PTSUNNY   70  61  73 CALM      30.07S
ELMIRA         CLOUDY    68  61  78 NE6       30.04S
BINGHAMTON     PTSUNNY   64  60  87 NE6       30.06S
MONTICELLO     MOSUNNY   73  63  68 E8        30.07F
$$

NYZ026>034-041>043-087-301500-
NORTH


CITY           SKY/WX    TMP DP  RH WIND       PRES   REMARKS
WATERTOWN      MOSUNNY   71  56  58 NE8       30.07S
FORT DRUM      NOT AVBL
MASSENA        PTSUNNY   70  58  65 E5        30.10R
SARANAC LAKE   PTSUNNY   68  51  54 NE6       30.10S
PLATTSBURGH    SUNNY     70  58  65 NE7       30.08S
$$

NYZ001>004-010>016-019>021-085-301500-
WEST


CITY           SKY/WX    TMP DP  RH WIND       PRES   REMARKS
NIAGARA FALLS  CLOUDY    70  63  78 E8        30.04S
BUFFALO        CLOUDY    69  59  70 E9        30.04F
DUNKIRK        LGT RAIN  66  62  87 E7        30.02R
JAMESTOWN      CLOUDY    61  57  88 SE7       30.05S
WELLSVILLE     CLOUDY    65  60  84 E3        30.09R
ROCHESTER      CLOUDY    74  60  61 E7        30.05S
PENN YAN       CLOUDY    66  59  78 CALM      30.06S
$$

             KEY
       WCI = WIND CHILL INDEX
       VSB = VISIBILITY
       HX  = HEAT INDEX
$$




USA.gov is the U.S. government's official web portal to all federal, state and local government web resources and services.